Cut Bank, MT

12:19 AM MST on November 20, 2019 (GMT -0700)
Cut Bank Municipal

Weather History for KCTB - September, 2019

Change the Weather History Date:

Wednesday, September 25, 2019

  Actual Average Record
Temperature  
Mean Temperature 52 °F 50 °F  
Max Temperature 64 °F 64 °F 90 °F (2014)
Min Temperature 40 °F 37 °F -4 °F (1934)
Degree Days  
Heating Degree Days 13 15  
Month to date heating degree days 191 267  
Since 1 July heating degree days 364 461  
Cooling Degree Days 0 0  
Month to date cooling degree days 2 6  
Year to date cooling degree days 106 159  
Growing Degree Days 2 (Base 50)    
Moisture  
Dew Point 29 °F    
Average Humidity 44    
Maximum Humidity 73    
Minimum Humidity 22    
Precipitation  
Precipitation 0.00 in 0.03 in 0.50 in (1917)
Month to date precipitation 1.03 1.06  
Year to date precipitation 9.86 9.72  
Snow  
Snow - - - ()
Snow Depth 0.00 in    
Sea Level Pressure  
Sea Level Pressure 29.99 in    
Wind  
Wind Speed 10 mph ()    
Max Wind Speed 26 mph    
Max Gust Speed 33 mph    
Visibility 10.0 miles    
Events      
T = Trace of Precipitation, MM = Missing Value Source: Averaged Metar Reports

Daily Weather History Graph

Daily Weather History Graph

Search for Another Location

Airport or City:

Astronomy

Sep. 25, 2019 Rise Set
Actual Time 7:20 AM MDT 7:21 PM MDT
Civil Twilight 6:48 AM MDT 7:52 PM MDT
Nautical Twilight 6:12 AM MDT 8:29 PM MDT
Astronomical Twilight 5:34 AM MDT 9:06 PM MDT
Moon 2:52 AM MDT (9/25) 6:18 PM MDT (9/25)
Length of Visible Light 13h 03m
Length of Day
12h 01m
Waning Crescent, 13% of the Moon is Illuminated
Sep 25
Waning Crescent
Sep 28
New
Oct 5
First Quarter
Oct 13
Full
Oct 21
Last Quarter

Hourly Weather History & Observations

Time (MDT) Temp. Windchill Dew Point Humidity Pressure Visibility Wind Dir Wind Speed Gust Speed Precip Events Conditions
12:56 AM 44.1 °F 38.1 °F 30.9 °F 60% 29.96 in 10.0 mi West 11.5 mph - N/A   Clear
1:56 AM 43.0 °F 36.0 °F 30.9 °F 62% 29.96 in 10.0 mi WNW 13.8 mph - N/A   Mostly Cloudy
2:56 AM 43.0 °F 41.3 °F 30.9 °F 62% 29.95 in 10.0 mi WNW 3.5 mph - N/A   Mostly Cloudy
3:56 AM 43.0 °F 36.4 °F 30.0 °F 60% 29.96 in 10.0 mi WNW 12.7 mph - N/A   Partly Cloudy
4:56 AM 41.0 °F 34.7 °F 32.0 °F 70% 29.99 in 10.0 mi NW 10.4 mph - N/A   Scattered Clouds
5:56 AM 43.0 °F 37.7 °F 33.1 °F 68% 30.00 in 10.0 mi NW 9.2 mph - N/A   Overcast
6:56 AM 41.0 °F 36.4 °F 33.1 °F 73% 30.03 in 10.0 mi WNW 6.9 mph - N/A   Mostly Cloudy
7:56 AM 43.0 °F 37.7 °F 30.9 °F 62% 30.05 in 10.0 mi NW 9.2 mph - N/A   Scattered Clouds
8:56 AM 50.0 °F - 33.1 °F 52% 30.06 in 10.0 mi West 6.9 mph - N/A   Clear
9:56 AM 55.0 °F - 33.1 °F 43% 30.07 in 10.0 mi NW 10.4 mph - N/A   Clear
10:56 AM 59.0 °F - 24.1 °F 26% 30.06 in 10.0 mi NW 15.0 mph - N/A   Clear
11:56 AM 60.1 °F - 24.1 °F 25% 30.06 in 10.0 mi NNW 12.7 mph - N/A   Clear
12:56 PM 62.1 °F - 23.0 °F 22% 30.06 in 10.0 mi NNW 12.7 mph 20.7 mph N/A   Clear
1:56 PM 62.1 °F - 24.1 °F 23% 30.04 in 10.0 mi West 10.4 mph - N/A   Partly Cloudy
2:56 PM 63.0 °F - 24.1 °F 23% 30.01 in 10.0 mi WSW 15.0 mph 23.0 mph N/A   Mostly Cloudy
3:56 PM 63.0 °F - 24.1 °F 23% 30.00 in 10.0 mi West 12.7 mph 25.3 mph N/A   Clear
4:56 PM 62.1 °F - 24.1 °F 23% 29.99 in 10.0 mi West 13.8 mph 25.3 mph N/A   Clear
5:56 PM 59.0 °F - 28.0 °F 31% 29.98 in 10.0 mi West 17.3 mph - N/A   Clear
6:56 PM 55.0 °F - 28.0 °F 35% 29.98 in 10.0 mi WSW 15.0 mph - N/A   Clear
7:56 PM 53.1 °F - 30.0 °F 41% 29.95 in 10.0 mi WSW 10.4 mph - N/A   Clear
8:56 PM 52.0 °F - 28.9 °F 41% 29.93 in 10.0 mi West 15.0 mph - N/A   Clear
9:56 PM 52.0 °F - 28.0 °F 40% 29.91 in 10.0 mi West 16.1 mph 23.0 mph N/A   Clear
10:56 PM 52.0 °F - 28.9 °F 41% 29.88 in 10.0 mi WSW 12.7 mph - N/A   Clear
11:56 PM 53.1 °F - 28.9 °F 40% 29.84 in 10.0 mi WSW 16.1 mph - N/A   Clear